Fort Lauderdale, FL

4:34 PM EDT on March 29, 2017 (GMT -0400)
Fort Lauderdale Executive

Weather History for KFXE - October, 2013

Change the Weather History Date:

Saturday, October 26, 2013

  Actual Average Record
Temperature  
Mean Temperature 76 °F -  
Max Temperature 82 °F 85 °F 90 °F (1981)
Min Temperature 69 °F 66 °F 54 °F (1990)
Cooling Degree Days 10    
Growing Degree Days 26 (Base 50)    
Moisture  
Dew Point 63 °F    
Average Humidity 63    
Maximum Humidity 84    
Minimum Humidity 50    
Precipitation  
Precipitation 0.00 in - - ()
Sea Level Pressure  
Sea Level Pressure 30.11 in    
Wind  
Wind Speed 8 mph (NE)    
Max Wind Speed 15 mph    
Max Gust Speed 22 mph    
Visibility 10 miles    
Events      
Averages and records for this station are not official NWS values.
T = Trace of Precipitation, MM = Missing Value Source: NWS Daily Summary

Daily Weather History Graph

Daily Weather History Graph

Search for Another Location

Airport or City:

Trip Planner

Search our weather history database for the weather conditions in past years. The results will help you decide how hot, cold, wet, or windy it might be!

Date:

Astronomy

Oct. 26, 2013 Rise Set
Actual Time 7:25 AM EDT 6:42 PM EDT
Civil Twilight 7:02 AM EDT 7:06 PM EDT
Nautical Twilight 6:35 AM EDT 7:33 PM EDT
Astronomical Twilight 6:08 AM EDT 8:00 PM EDT
Moon 12:09 AM EDT (10/26) 1:36 PM EDT (10/26)
Length of Visible Light 12h 04m
Length of Day
11h 16m
Waning Gibbous, 53% of the Moon is Illuminated
Oct 26
Waning Gibbous
Oct 26
Last Quarter
Nov 3
New
Nov 10
First Quarter
Nov 17
Full

Hourly Weather History & Observations

Time (EDT) Temp. Heat Index Dew Point Humidity Pressure Visibility Wind Dir Wind Speed Gust Speed Precip Events Conditions
12:53 AM 77.0 °F - 63.0 °F 62% 30.14 in 10.0 mi NE 10.4 mph - N/A   Scattered Clouds
1:53 AM 77.0 °F - 62.1 °F 60% 30.12 in 10.0 mi NE 9.2 mph - N/A   Scattered Clouds
2:53 AM 75.9 °F - 61.0 °F 60% 30.10 in 10.0 mi ENE 9.2 mph - N/A   Partly Cloudy
3:53 AM 75.9 °F - 61.0 °F 60% 30.10 in 10.0 mi NE 4.6 mph - N/A   Clear
4:53 AM 71.1 °F - 64.0 °F 78% 30.09 in 10.0 mi NW 4.6 mph - N/A   Clear
5:53 AM 71.1 °F - 64.0 °F 78% 30.09 in 10.0 mi NNW 4.6 mph - N/A   Partly Cloudy
6:53 AM 69.1 °F - 64.0 °F 84% 30.12 in 10.0 mi NNW 5.8 mph - N/A   Scattered Clouds
7:53 AM 69.1 °F - 64.0 °F 84% 30.14 in 10.0 mi NNW 3.5 mph - N/A   Clear
8:53 AM 71.1 °F - 64.0 °F 78% 30.14 in 10.0 mi NNW 4.6 mph - N/A   Scattered Clouds
9:53 AM 78.1 °F - 64.0 °F 62% 30.15 in 10.0 mi ENE 10.4 mph - N/A   Scattered Clouds
10:53 AM 80.1 °F 81.2 °F 62.1 °F 54% 30.16 in 10.0 mi NE 10.4 mph 20.7 mph N/A   Scattered Clouds
11:53 AM 82.9 °F 84.0 °F 63.0 °F 51% 30.15 in 10.0 mi East 15.0 mph 21.9 mph N/A   Scattered Clouds
12:53 PM 82.9 °F 84.0 °F 63.0 °F 51% 30.14 in 10.0 mi ENE 10.4 mph 21.9 mph N/A   Scattered Clouds
1:53 PM 82.0 °F 83.0 °F 62.1 °F 51% 30.12 in 10.0 mi ENE 10.4 mph - N/A   Scattered Clouds
2:53 PM 82.0 °F 83.0 °F 62.1 °F 51% 30.09 in 10.0 mi East 13.8 mph - N/A   Scattered Clouds
3:53 PM 82.9 °F 84.0 °F 63.0 °F 51% 30.08 in 10.0 mi ENE 9.2 mph - N/A   Partly Cloudy
4:53 PM 81.0 °F 81.7 °F 61.0 °F 50% 30.07 in 10.0 mi NE 9.2 mph 18.4 mph N/A   Scattered Clouds
5:53 PM 80.1 °F 81.2 °F 62.1 °F 54% 30.07 in 10.0 mi NE 6.9 mph - N/A   Scattered Clouds
6:53 PM 77.0 °F - 62.1 °F 60% 30.08 in 10.0 mi NE 5.8 mph - N/A   Scattered Clouds
7:53 PM 77.0 °F - 62.1 °F 60% 30.09 in 10.0 mi NNE 5.8 mph - N/A   Clear
8:53 PM 75.0 °F - 61.0 °F 62% 30.10 in 10.0 mi Calm Calm - N/A   Clear
9:53 PM 73.9 °F - 62.1 °F 66% 30.11 in 10.0 mi Calm Calm - N/A   Clear
10:53 PM 73.0 °F - 63.0 °F 71% 30.11 in 10.0 mi North 3.5 mph - N/A   Partly Cloudy
11:53 PM 71.1 °F - 63.0 °F 75% 30.09 in 10.0 mi Calm Calm - N/A   Partly Cloudy